Scio, NY

1:20 PM EST on December 07, 2016 (GMT -0500)
Wellsville Municipal-Tarantine

Weather History for KELZ - July, 2012

Change the Weather History Date:

Thursday, July 5, 2012

  Actual Average (KBFD) Record (KBFD)
Temperature  
Mean Temperature 76 °F 65 °F  
Max Temperature 87 °F 77 °F 91 °F (1993)
Min Temperature 66 °F 53 °F 37 °F (1961)
Degree Days  
Heating Degree Days 0 0  
Month to date heating degree days 1  
Since 1 June heating degree days 146  
Since 1 July heating degree days 1  
Cooling Degree Days 11 2  
Month to date cooling degree days 10  
Year to date cooling degree days 60  
Since 1 June cooling degree days 50  
Growing Degree Days 26 (Base 50)    
Moisture  
Dew Point 64 °F    
Average Humidity 73    
Maximum Humidity 94    
Minimum Humidity 37    
Precipitation  
Precipitation 0.00 in 0.13 in 1.62 in (2005)
Month to date precipitation 0.67  
Year to date precipitation 22.32  
Sea Level Pressure  
Sea Level Pressure 29.93 in    
Wind  
Wind Speed 6 mph (NNW)    
Max Wind Speed 13 mph    
Max Gust Speed 17 mph    
Visibility 8 miles    
Events      
T = Trace of Precipitation, MM = Missing Value Source: NWS Daily Summary

Daily Weather History Graph

Daily Weather History Graph

Search for Another Location

Airport or City:

Trip Planner

Search our weather history database for the weather conditions in past years. The results will help you decide how hot, cold, wet, or windy it might be!

Date:

Astronomy

Jul. 05, 2012 Rise Set
Actual Time 5:42 AM EDT 8:50 PM EDT
Civil Twilight 5:08 AM EDT 9:24 PM EDT
Nautical Twilight 4:24 AM EDT 10:08 PM EDT
Astronomical Twilight 3:32 AM EDT 11:00 PM EDT
Moon 10:02 PM EDT (7/5) 7:54 AM EDT (7/5)
Length of Visible Light 16h 16m
Length of Day
15h 08m
Waning Gibbous, 95% of the Moon is Illuminated
Jul 5
Waning Gibbous
Jul 10
Last Quarter
Jul 19
New
Jul 26
First Quarter
Aug 1
Full

Hourly Weather History & Observations

Time (EDT) Temp. Heat Index Dew Point Humidity Pressure Visibility Wind Dir Wind Speed Gust Speed Precip Events Conditions
12:56 AM 72.0 °F - 68.0 °F 87% 29.88 in 10.0 mi WNW 6.9 mph - N/A   Scattered Clouds
1:12 AM 73.4 °F - 68.0 °F 83% 29.93 in 10.0 mi WNW 8.1 mph - N/A   Mostly Cloudy
1:25 AM 73.4 °F - 69.8 °F 88% 29.94 in 10.0 mi WNW 8.1 mph - N/A   Overcast
1:56 AM 73.9 °F - 69.1 °F 85% 29.90 in 10.0 mi WNW 8.1 mph - N/A   Mostly Cloudy
2:09 AM 73.4 °F - 69.8 °F 88% 29.94 in 9.0 mi WNW 8.1 mph - N/A   Mostly Cloudy
2:56 AM 72.0 °F - 68.0 °F 87% 29.88 in 7.0 mi WNW 8.1 mph - N/A   Clear
3:56 AM 71.1 °F - 68.0 °F 90% 29.87 in 7.0 mi NW 9.2 mph - N/A   Clear
4:56 AM 70.0 °F - 64.9 °F 84% 29.88 in 10.0 mi NW 5.8 mph - N/A   Clear
5:56 AM 66.0 °F - 64.0 °F 93% 29.91 in 4.0 mi WNW 5.8 mph - N/A   Clear
6:42 AM 69.8 °F - 66.2 °F 88% 29.97 in 3.0 mi North 3.5 mph - N/A   Scattered Clouds
6:51 AM 69.8 °F - 66.2 °F 88% 29.98 in 3.0 mi NW 4.6 mph - N/A   Mostly Cloudy
6:56 AM 69.1 °F - 66.0 °F 90% 29.93 in 3.0 mi NNW 3.5 mph - N/A   Mostly Cloudy
7:08 AM 69.8 °F - 66.2 °F 88% 29.97 in 2.0 mi Calm Calm - N/A   Mostly Cloudy
7:11 AM 68.0 °F - 66.2 °F 94% 29.97 in 1.8 mi Calm Calm - N/A   Scattered Clouds
7:20 AM 68.0 °F - 66.2 °F 94% 29.97 in 2.5 mi Calm Calm - N/A   Partly Cloudy
7:28 AM 69.8 °F - 64.4 °F 83% 29.98 in 4.0 mi WNW 4.6 mph - N/A   Partly Cloudy
7:56 AM 71.1 °F - 66.0 °F 84% 29.92 in 8.0 mi NW 5.8 mph - N/A   Clear
8:56 AM 73.9 °F - 66.0 °F 76% 29.92 in 10.0 mi NNW 3.5 mph - N/A   Clear
9:56 AM 77.0 °F - 64.9 °F 66% 29.92 in 10.0 mi NW 5.8 mph - N/A   Clear
10:56 AM 80.1 °F 81.7 °F 64.0 °F 58% 29.94 in 10.0 mi NW 10.4 mph - N/A   Clear
11:56 AM 82.0 °F 82.4 °F 60.1 °F 47% 29.94 in 10.0 mi NNE 12.7 mph 17.3 mph N/A   Partly Cloudy
1:56 PM 84.9 °F 84.8 °F 60.1 °F 43% 29.93 in 10.0 mi NNE 9.2 mph 17.3 mph N/A   Partly Cloudy
2:56 PM 86.0 °F 84.9 °F 57.0 °F 37% 29.93 in 10.0 mi NNW 9.2 mph 16.1 mph N/A   Clear
3:56 PM 84.9 °F 84.4 °F 59.0 °F 41% 29.93 in 10.0 mi NNE 8.1 mph - N/A   Clear
4:56 PM 84.9 °F 84.2 °F 57.9 °F 40% 29.92 in 10.0 mi NNE 9.2 mph - N/A   Clear
5:56 PM 84.0 °F 83.8 °F 59.0 °F 43% 29.91 in 10.0 mi Variable 6.9 mph - N/A   Clear
6:56 PM 81.0 °F 81.6 °F 60.1 °F 49% 29.91 in 10.0 mi Calm Calm - N/A   Clear
7:56 PM 79.0 °F - 61.0 °F 54% 29.92 in 10.0 mi NNE 3.5 mph - N/A   Clear
8:56 PM 75.9 °F - 61.0 °F 60% 29.94 in 10.0 mi North 3.5 mph - N/A   Clear
9:56 PM 73.0 °F - 61.0 °F 66% 29.96 in 10.0 mi NNW 3.5 mph - N/A   Clear
10:56 PM 72.0 °F - 62.1 °F 71% 29.97 in 10.0 mi NNW 3.5 mph - N/A   Clear
11:56 PM 68.0 °F - 62.1 °F 81% 29.97 in 10.0 mi Calm Calm - N/A   Clear